www.pogodaiklimat.ru

ПОГОДА в Кламат-Фолсе, OR

  • Прогноз погоды в Кламат-Фолсе
  • Монитор погоды в Кламат-Фолсе
  • Климат в Кламат-Фолсе

АРХИВ ПОГОДЫ в Кламат-Фолсе

Время (UTC), дата Ветер
(напр.,м/с)
 
Видим.   Явления Облачность Т
(С)
Тd
(С)
f
(%)
Тe
(С)
Тes
(С)
Комфортность

P
(гПа)

Po
(гПа)
Тmin
(С)
Tmax
(С)
R
(мм)
SD
(см)
11:53 25.03 ЮВ  16 км    2/0 2400 м
[средняя] 
+4.4  -5.0  50  +2  +2    1013.4  872.8         
12:53 25.03 Ю  16 км    10/0 2100 м
[средняя] 
+4.4  -3.3  57  -1  -1    1013.1  872.5         
13:53 25.03 ЮВ  16 км    8/0 3300 м
[средняя] 
+5.0  -3.9  53  0  0    1013.3  872.2         
14:53 25.03 Ю  16 км    8/0 3300 м
[средняя] 
+6.1  -5.0  45  +2  +2    1012.9  871.9         
15:53 25.03 ЮВ  16 км    8/0 2400 м
[средняя] 
+6.7  -4.4  45  +3  +3    1013.0  871.9         
16:53 25.03 ЮЗ  13
{16} 
16 км    10/10 1800 м  +5.6  -1.7  59  -1  -1    1013.5  872.2  +3.3  +7.8     
17:53 25.03 Ю  11
{16} 
16 км    10/8 1500 м
[средняя] 
+6.7  -1.1  57  +1  +1    1013.1  872.2         
18:53 25.03 Ю  16 км    10/8 1080 м
[средняя] 
+6.1  0.0  65  0  0    1013.3  872.2         
19:53 25.03 Ю  10
{15} 
16 км    10/10 870 м  +5.6  0.0  67  -1  -1    1013.8  872.8         
20:53 25.03 Ю  10
{14} 
16 км    10/8 1380 м
[средняя] 
+6.7  -0.6  60  +1  +1    1013.9  872.8         
21:42 25.03 ЮЗ  16 км  слабый дождь  10/10 810 м  +5.0  +0.6  73  -1  -1      873.4         
21:53 25.03 Ю  16 км    10/10 750 м  +5.6  +0.6  70  0  0    1014.5  873.1         
22:53 25.03 ЮВ  16 км    10/10 840 м  +5.6  0.0  67  +1  +1    1014.4  873.1  +5.0  +7.2     
23:53 25.03 ЮВ  16 км    10/10 990 м  +5.6  -0.6  64  +1  +1    1014.4  873.1         
00:53 26.03 Ю  16 км    8/8 1470 м  +5.0  -0.6  67  0  0    1014.5  873.1         
01:53 26.03 Ю  16 км    2/2 1380 м  +3.9  -0.6  72  -0  -0    1014.7  873.1         
02:53 26.03 Ю  16 км    5/5 1410 м  +3.3  0.0  79  -1  -1    1015.0  873.7         
03:53 26.03 ЮЗ  16 км    10/10 1260 м  +3.3  +0.6  82  +1  +1    1015.5  874.0         
04:53 26.03 Ю  16 км    10/10 1650 м  +3.3  +0.6  82  -1  -1    1015.8  874.3  +2.8  +5.6     
05:53 26.03   16 км    8/8 1350 м  +2.8  +0.6  85  +2  +2    1015.8  874.3         
06:53 26.03 Ю  16 км    8/8 1080 м  +2.2  0.0  85  -0  -0    1016.2  874.6         
07:53 26.03 Ю  16 км    8/5 1110 м
[средняя] 
+2.2  0.0  85  -0  -0    1016.2  874.6         
08:53 26.03 С  16 км    ясно  -1.1  -2.2  92  -4  -4    1016.4  874.3         
09:53 26.03   16 км    ясно  -1.1  -1.7  96  -2  -2    1016.2  874.0         
10:53 26.03   16 км    5/5 270 м  -2.2  -3.3  92  -3  -3    1016.6  874.0  -2.8  +3.3     
11:53 26.03   16 км    ясно  -2.2  -3.3  92  -3  -3    1016.7  874.3         
12:53 26.03   16 км    ясно  -2.8  -3.9  92  -4  -4    1016.9  874.3         
13:10 26.03   1 км  дымка  ясно  -3.3  -4.4  92  -4  -4      874.0         
13:15 26.03   13 км  дымка  8/8 1650 м  -3.3  -4.4  92  -4  -4      874.3         
13:53 26.03 ЮЗ  5 км  дымка  8/8 1650 м  -1.7  -2.8  92  -5  -5    1017.1  874.3         
13:55 26.03   3 км  дымка  8/8 30 м  -1.7  -2.8  92  -3  -3      874.3         
14:04 26.03   400 м  дымка  ?/?  -1.1  -2.2  92  -2  -2      874.3         
14:31 26.03   800 м  дымка  ?/?  0.0  -0.6  96  -1  -1      874.6         
14:43 26.03   2 км  дымка  8/8 30 м  0.0  0.0  100  -1  -1      874.3         
14:47 26.03   8 км  дымка  5/5 450 м  0.0  0.0  100  -1  -1      874.3         
14:53 26.03   10 км  дымка  5/5 450 м  0.0  0.0  100  -1  -1    1017.0  874.6         
14:55 26.03   10 км  дымка  8/8 30 м  +0.6  +0.6  100  -1  -1      874.6         
15:02 26.03   16 км  дымка  5/5 450 м  +0.6  +0.6  100  -1  +1      874.6         
15:10 26.03   8 км    8/8 420 м  +1.1  +0.6  96  -0  +1      874.6         
15:53 26.03 СЗ  8 км    8/8 270 м  +2.8  +1.1  89  0  +1    1016.7  874.6         
16:53 26.03 Ю  16 км    8/8 420 м  +5.0  0.0  70  +2  +3    1016.2  874.6  -3.9  +5.0     
17:06 26.03 нст  16 км    5/5 420 м  +6.1  0.0  65  +5  +10      874.6         
17:53 26.03 Ю  16 км    5/5 720 м  +6.7  -2.8  51  +4  +7    1015.9  874.3         
18:53 26.03 Ю  7
{10} 
16 км    8/8 900 м  +8.9  0.0  54  +5  +5    1015.0  873.7         
19:53 26.03 ЮВ  16 км    8/8 1020 м  +9.4  +0.6  54  +6  +8    1013.9  873.1         
20:53 26.03 ЮВ  8
{11} 
16 км    8/5 1650 м
[средняя] 
+9.4  -0.6  50  +5  +6    1013.7  872.2         
21:53 26.03 ЮВ  6
{11} 
16 км    8/8 1230 м  +10.0  -1.1  46  +7  +7    1013.4  872.2         
22:53 26.03 Ю  16 км    5/5 1170 м  +9.4  -3.9  39  +5  +5    1013.1  871.6  +5.0  +11.1     

 

Местоположение метеостанции Klamath Falls International Airport: широта 42.1469 долгота -121.7242 высота над уровнем моря 1247 м.

В архиве по умолчанию представлена погода в Кламат-Фолсе за последние 1-2 суток. Обновление информации о фактической погоде в базе происходит ежечасно! Архивные данные за месяц целиком и за предыдущие месяцы Вы можете получить, выбрав интересующий диапазон дат из раскрывающегося списка и нажав кнопку "Ввод!".

Внимание! Архив погоды МЕТАР в базе сайта хранится не более 60 дней. Нет смысла пытаться выбрать более раннюю дату.

Внимание! Время в таблицах - всемирное. Для получения местного времени необходимо прибавить поправку, которая в Кламат-Фолсе равна -8 ч.

Ветер - указаны скорость ветра в м/с и направление, откуда дует ветер: С - северный, СВ - северо-восточный, В - восточный, ЮВ - юго-восточный, Ю - южный, ЮЗ - юго-западный, З - западный, СЗ - северо-западный.
Видимость - горизонтальная дальность видимости в метрах или километрах. При видимости от 1 до 10 км при отсутствии осадков обычно наблюдается дымка, при ухудшении видимости до 1 км и менее - туман. В сухую погоду видимость может ухудшаться дымом, пылью или мглою.
Атмосферные явления - указаны явления, наблюдавшиеся в указанный момент времени.
Облачность - указаны через наклонную черту верхняя и нижняя облачность в баллах и высота нижней границы облаков в метрах. Внимание: облачность, как и прочие метеорологические величины в США измеряются автоматическими метеостанциями. Указанные значения в баллах носят условный характер и показывают процент времени, в течение которого, в среднем, лазерный луч высотомера отражался от облаков обратно.
T - Температура воздуха - температура, измеренная на высоте 2 м над землей.
Td - Температура точки росы - температура, при понижении до которой содержащийся в воздухе водяной пар достигнет насыщения.
f - Относительная влажность воздуха - влажноcть воздуха, измеренная на высоте 2 м над землей.
Te - Эффективная температура - температура, которую ощущает одетый по сезону человек в тени. Характеристика душности погоды. При расчете учитывается влияние влажности воздуха и скорости ветра на теплоощущения человека.
Tes - Эффективная температура на солнце - температура, которую ощущает человек, с поправкой на солнечный нагрев. Характеристика знойности погоды. Зависит от высоты солнца над горизонтом, облачности и скорости ветра. Ночью, в пасмурную погоду, а также при ветре 12 м/с и более поправка равна нулю.
P - Атмосферное давление - приведенное к уровню моря атмосферное давление.
Po - Атмосферное давление - измеренное на уровне метеостанции атмосферное давление.
Tmin - Минимальная температура - минимум температуры воздуха на высоте 2 м над землей.
Tmax - Максимальная температура - максимум температуры воздуха на высоте 2 м над землей.
R - Количество осадков - Количество выпавших осадков за 3 или 6 часов, мм.
SD - Снежный покров - Высота снежного покрова, см.